THOR ABLESTAR DEB, 558

Orbit data source: Space-Track

THOR ABLESTAR DEB, 558 is space debris in LEO originally from a launch on Thu, 29 Jun 1961 UTC launched from the Air Force Eastern Test Range (AFETR). Debris objects in space refer to the collection of defunct objects orbiting the Earth. Examples of debris include non-operational satellites, rocket bodies, and fragments generated from explosions, collisions, or faulty payload assembly.

Loading next visibility...
Identifier
558, 1961-015GQ
Orbit
LEO
Country
Flag of USUS
Related business
Manufacturer
Unknown
Mission
Spacecraft
Bus & Motor
Unknown
Mass
Unknown
Launch date (UTC)
1961-06-29 (65 years ago)
Launch vehicle
Unknown
Launch site
Air Force Eastern Test Range (AFETR)
Object type
Payload
Rocket body
Debris
Shape & HBR
Unknown shape, 0.2 m
Radar Cross Section
Medium (>0.1 m² and <1 m²)

Expand to show TLE details & history
Last TLE update: 1 day ago

TLE from 1 day ago
0 THOR ABLESTAR DEB
1   558U 61015GQ  26246.32412132 -.00000340  00000-0 -69466-3 0  9992
2   558  65.7012 350.4370 0463484  67.7070 331.6453 12.86541421 59619
Epoch: 2026-09-03T07:46Z
TLE epoch observation values (Epoch: 2026-09-03T07:46:44.082Z)
Latitude
33.0787°
Longitude
-91.7°
Altitude
1,008.73 km
Speed
7.497 km/s
True Right ascension
00h 29m 47s
True Declination
32° 55' 37"
Sunlit
Object was in full shadow at epoch
Visualization orbit readout
Latitude
Unknown
Longitude
Unknown
Altitude
Unknown
Speed
Unknown
Apparent Right ascension
Unknown
Apparent Declination
Unknown
Sunlit
N/A
Visualization observer readout
Local Sidereal Time
02:50:58
Azimuth
Unknown
Elevation
Unknown
Doppler factor
Unknown
Orbital elements
Apogee altitude
1,670.385 km
Perigee altitude
957.361 km
Semi-major axis
7,692.01 km
Eccentricity
0.04635
Inclination
65.7012°
RAAN
350.437°
Arg. of periapsis
67.707°
True anomaly
328.98865°
Mean anomaly
331.6453°
Eccentric anomaly
330.33082°
Mean motion
3.21724 °/min
Orbital period
111.9 mins
BSTAR
-0.00069466
Loading maneuver chart data...
Computing Atmospheric mass density...
Loading historical data...
Loading historical data...
Loading historical data...
Loading historical data...
Loading historical data...
Loading historical data...
Loading historical data...

Documentation

Showing up to 5 results
|